Location: Finkenbach
(49.5340°N, 8.9188°E)
Time: 21:16:39
(UTC+00:00)

Okean 2 Rocket - Pass Details

Date: 17 June 2025
Orbit: 611 x 635 km, 82.5° (Epoch: 16 July)

Event Time Altitude Azimuth Distance (km) Brightness Sun altitude
Rises 23:36:16 0° 356° (N) 2,940 8.3 -17.0°
Reaches altitude 10° 23:38:41 10° 5° (N) 2,024 7.0 -17.0°
Maximum altitude 23:42:50 36° 72° (ENE) 1,000 4.3 -17.0°
Enters shadow 23:45:46 17° 132° (SE) 1,592 4.8 -16.9°
